GW2173 Weather Reports


time (UTC)temp
C
wind
direction
speed
KPH
gust
KPH
rain 1hr
cm
rain 24hr
cm
rain mn
cm
humidity
%
barometer
mb
20260510180152 17 41 8.0 19.3 0.00 0.00 0.03 70 1008.9
20260510175651 17 42 4.8 19.3 0.00 0.00 0.03 72 1008.8
20260510175150 17 40 8.0 19.3 0.00 0.00 0.03 70 1009.5
20260510174649 17 88 3.2 19.3 0.00 0.00 0.03 73 1009.6
20260510174148 17 49 6.4 19.3 0.00 0.00 0.03 70 1009.6
20260510173131 17 51 3.2 19.3 0.00 0.00 0.03 71 1009.6
20260510172631 17 37 6.4 19.3 0.00 0.00 0.03 72 1009.1
20260510172131 16 89 3.2 19.3 0.00 0.00 0.03 77 1010.2
20260510171631 16 38 4.8 19.3 0.00 0.00 0.03 76 1010.4
20260510171130 16 44 6.4 19.3 0.00 0.00 0.03 78 1010.3
20260510170630 16 23 4.8 19.3 0.00 0.00 0.03 82 1010.4
20260510170129 16 47 4.8 19.3 0.00 0.00 0.03 84 1010.5
20260510165629 16 69 4.8 19.3 0.00 0.00 0.03 84 1010.9
20260510165129 16 45 4.8 19.3 0.00 0.00 0.03 84 1010.9
20260510164629 16 73 8.0 19.3 0.00 0.00 0.03 85 1010.7
20260510164129 16 90 3.2 19.3 0.00 0.00 0.03 88 1010.9
20260510162554 16 64 3.2 19.3 0.00 0.00 0.03 89 1010.4
20260510162053 16 58 3.2 19.3 0.00 0.00 0.03 88 1010.6
20260510161553 16 111 4.8 19.3 0.00 0.00 0.03 87 1010.5
20260510161052 16 44 4.8 19.3 0.00 0.00 0.03 87 1010.2
20260510160551 16 83 0.0 19.3 0.00 0.00 0.03 88 1009.8
20260510160050 16 89 0.0 19.3 0.00 0.00 0.03 87 1009.7
20260510155033 15 156 1.6 19.3 0.00 0.00 0.03 87 1009.8
20260510154533 15 185 0.0 19.3 0.00 0.00 0.03 88 1009.3
20260510154032 15 185 0.0 19.3 0.00 0.00 0.03 89 1008.7
20260510153531 15 186 3.2 19.3 0.00 0.00 0.03 90 1008.7
20260510153031 15 194 4.8 19.3 0.03 0.00 0.03 90 1008.5
20260510152530 15 171 1.6 19.3 0.03 0.00 0.03 91 1008.3
20260510152029 15 139 0.0 19.3 0.03 0.00 0.03 92 1008.4
20260510151528 15 129 0.0 19.3 0.03 0.00 0.03 92 1008.3
20260510150512 15 184 3.2 19.3 0.03 0.00 0.03 92 1008.5
20260510150012 15 168 4.8 19.3 0.03 0.00 0.03 92 1008.3
20260510145512 15 196 3.2 19.3 0.03 0.00 0.03 92 1008.4
20260510145012 15 187 0.0 19.3 0.03 0.00 0.03 92 1008.2
20260510144511 15 182 0.0 19.3 0.03 0.00 0.03 91 1008.0
20260510144011 15 165 0.0 19.3 0.03 0.00 0.03 91 1008.0
20260510142955 15 171 3.2 19.3 0.03 0.00 0.03 89 1008.1
20260510142454 15 157 0.0 19.3 0.00 0.00 0.00 89 1006.6
20260510141954 15 156 1.6 19.3 0.00 0.00 0.00 88 1006.5
20260510141454 15 134 3.2 19.3 0.00 0.00 0.00 87 1005.0
20260510140437 16 84 4.8 19.3 0.00 0.00 0.00 84 1007.7
20260510135936 16 45 0.0 19.3 0.00 0.00 0.00 84 1007.1
20260510135435 16 63 1.6 19.3 0.00 0.00 0.00 84 1007.1
20260510134935 16 2 3.2 19.3 0.00 0.00 0.00 84 1007.5
20260510134434 16 70 1.6 19.3 0.00 0.00 0.00 84 1007.0
20260510133933 16 5 3.2 19.3 0.00 0.00 0.00 85 1006.8
20260510133433 15 309 3.2 19.3 0.00 0.00 0.00 86 1006.3
20260510132932 15 14 3.2 19.3 0.00 0.00 0.00 86 1003.7
20260510132431 15 30 4.8 19.3 0.00 0.00 0.00 86 993.1
20260510131930 15 49 6.4 19.3 0.00 0.00 0.00 87 999.7
20260510131429 15 18 4.8 19.3 0.00 0.00 0.00 87 999.5
20260510130929 15 15 6.4 19.3 0.00 0.00 0.00 87 999.5
20260510130428 15 16 6.4 19.3 0.00 0.00 0.00 87 999.7
20260510125412 14 13 4.8 19.3 0.00 0.00 0.00 89 999.7
20260510124911 14 19 3.2 19.3 0.00 0.00 0.00 89 1003.3
20260510124411 14 23 3.2 19.3 0.00 0.00 0.00 89 993.1
20260510123911 14 18 3.2 19.3 0.00 0.00 0.00 89 927.0
20260510123411 14 345 4.8 19.3 0.00 0.00 0.00 89 942.7
20260510122911 14 356 3.2 19.3 0.00 0.00 0.00 89 945.2
20260510122411 14 9 4.8 19.3 0.00 0.00 0.00 89 940.5
20260510121911 14 9 4.8 19.3 0.00 0.00 0.00 89 965.5
20260510120856 13 108 4.8 19.3 0.00 0.00 0.00 89 977.4
20260510120356 13 100 4.8 19.3 0.00 0.00 0.00 89 989.9
20260510115855 13 90 4.8 19.3 0.00 0.00 0.00 89 989.6
20260510115354 13 85 4.8 19.3 0.00 0.00 0.00 89 984.0
20260510114338 13 118 3.2 19.3 0.00 0.00 0.00 90 968.5
20260510113322 13 87 4.8 19.3 0.00 0.00 0.00 89 968.4
20260510112821 13 71 4.8 19.3 0.00 0.00 0.00 89 969.0
20260510112320 13 88 3.2 19.3 0.00 0.00 0.00 89 945.7
20260510111819 13 107 3.2 19.3 0.00 0.00 0.00 88 938.4
20260510111319 13 60 3.2 19.3 0.00 0.00 0.00 88 939.8
20260510110818 13 72 6.4 19.3 0.00 0.00 0.00 89 939.9
20260510110317 13 73 6.4 19.3 0.00 0.00 0.00 88 939.6
20260510105300 13 67 8.0 19.3 0.00 0.00 0.00 88 938.1
20260510104759 13 63 8.0 19.3 0.00 0.00 0.00 88 938.3
20260510104259 13 59 8.0 19.3 0.00 0.00 0.00 88 938.6
20260510103758 13 66 9.7 19.3 0.00 0.00 0.00 89 937.9
20260510103257 13 72 6.4 19.3 0.00 0.00 0.00 89 937.7
20260510102756 13 59 4.8 19.3 0.00 0.00 0.00 88 938.0
20260510102256 13 48 4.8 19.3 0.00 0.00 0.00 88 939.4
20260510101755 13 47 6.4 19.3 0.00 0.00 0.00 88 939.1
20260510101254 13 50 4.8 19.3 0.00 0.00 0.00 88 937.3
20260510100753 13 37 6.4 19.3 0.00 0.00 0.00 88 942.0
20260510100252 13 36 8.0 19.3 0.00 0.00 0.00 88 946.9
20260510095236 13 50 6.4 19.3 0.00 0.00 0.00 88 949.5
20260510094736 13 38 6.4 19.3 0.00 0.00 0.00 88 950.6
20260510094235 14 37 4.8 19.3 0.00 0.00 0.00 87 951.5
20260510093735 14 58 3.2 19.3 0.00 0.00 0.00 86 951.8
20260510093234 14 44 3.2 19.3 0.00 0.00 0.00 86 952.8
20260510092733 14 30 4.8 19.3 0.00 0.00 0.00 85 954.1
20260510092232 15 31 8.0 19.3 0.00 0.00 0.00 85 955.1
20260510091732 15 25 9.7 19.3 0.00 0.00 0.00 85 954.4
20260510091231 15 21 8.0 19.3 0.00 0.00 0.00 85 955.3
20260510090730 15 24 6.4 19.3 0.00 0.00 0.00 85 955.9
20260510090229 15 8 8.0 19.3 0.00 0.00 0.00 85 955.6
20260510085729 15 358 8.0 19.3 0.00 0.00 0.00 85 956.0
20260510085228 15 359 9.7 19.3 0.00 0.00 0.00 85 957.3
20260510084727 15 3 11.3 19.3 0.00 0.00 0.00 86 958.8
20260510084226 15 359 9.7 19.3 0.00 0.00 0.00 85 960.1
20260510083210 15 1 8.0 19.3 0.00 0.00 0.00 86 961.0
20260510082154 15 14 9.7 19.3 0.00 0.00 0.00 86 961.8
20260510081653 14 20 9.7 19.3 0.00 0.00 0.00 87 962.9
20260510081154 14 31 6.4 19.3 0.00 0.00 0.00 88 963.8
20260510080137 14 51 4.8 19.3 0.00 0.00 0.00 87 972.0
20260510075637 14 41 4.8 19.3 0.00 0.00 0.00 86 972.4
20260510075136 14 40 3.2 19.3 0.00 0.00 0.00 85 973.1
20260510074636 15 35 4.8 19.3 0.00 0.00 0.00 85 973.8
20260510074136 15 24 8.0 19.3 0.00 0.00 0.00 85 978.3
20260510073120 15 20 8.0 19.3 0.00 0.00 0.00 85 969.4
20260510072620 15 19 8.0 19.3 0.00 0.00 0.00 85 967.8
20260510072120 15 37 6.4 19.3 0.00 0.00 0.00 85 966.8
20260510071618 15 37 8.0 19.3 0.00 0.00 0.00 84 959.3
20260510070603 15 45 6.4 19.3 0.00 0.00 0.00 84 961.6
20260510065548 15 28 6.4 19.3 0.00 0.00 0.00 83 946.0
20260510064532 15 23 6.4 19.3 0.00 0.00 0.00 83 941.6
20260510063516 15 21 8.0 19.3 0.00 0.00 0.00 83 944.1
20260510063016 15 26 6.4 19.3 0.00 0.00 0.00 82 945.2
20260510062000 15 33 11.3 19.3 0.00 0.00 0.00 82 984.2
20260510061501 15 57 8.0 19.3 0.00 0.00 0.00 82 989.0
20260510061001 16 45 8.0 19.3 0.00 0.00 0.00 81 989.1
20260510060500 16 73 4.8 19.3 0.00 0.00 0.00 81 988.9
20260510060000 16 53 3.2 19.3 0.00 0.00 0.00 81 988.7
20260510055500 16 48 9.7 20.9 0.00 0.00 0.00 81 981.6
20260510055000 16 40 9.7 20.9 0.00 0.00 0.00 81 956.3
20260510054500 16 16 8.0 20.9 0.00 0.00 0.00 81 954.1
20260510053959 16 26 8.0 20.9 0.00 0.00 0.00 81 953.9
20260510053458 16 356 6.4 20.9 0.00 0.00 0.00 81 952.6
20260510052956 16 10 6.4 20.9 0.00 0.00 0.00 80 951.6
20260510052456 16 21 8.0 20.9 0.00 0.00 0.00 80 957.2
20260510051954 16 8 9.7 20.9 0.00 0.00 0.00 80 939.1
20260510051454 16 40 9.7 20.9 0.00 0.00 0.00 80 908.3
20260510050953 16 0 9.7 20.9 0.00 0.00 0.00 79 909.2
20260510050451 16 9 9.7 20.9 0.00 0.00 0.00 79 910.4
20260510045950 16 358 11.3 24.1 0.00 0.00 0.00 79 912.1
20260510045450 16 12 9.7 24.1 0.00 0.00 0.00 79 911.5
20260510044434 16 13 8.0 24.1 0.00 0.00 0.00 78 911.0
20260510043933 16 3 12.9 24.1 0.00 0.00 0.00 78 909.7
20260510043432 16 44 8.0 20.9 0.00 0.00 0.00 78 910.7
20260510042931 16 50 9.7 20.9 0.00 0.00 0.00 78 909.9
20260510042430 16 64 9.7 20.9 0.00 0.00 0.00 78 909.8
20260510041928 16 56 11.3 20.9 0.00 0.00 0.00 78 908.1
20260510040913 17 57 11.3 29.0 0.00 0.00 0.00 77 929.8
20260510040412 17 67 11.3 29.0 0.00 0.00 0.00 77 930.6
20260510034842 17 30 11.3 22.5 0.00 0.00 0.30 77 910.3
20260510034341 17 323 11.3 20.9 0.00 0.00 0.30 76 904.7
20260510033841 17 42 11.3 30.6 0.00 0.00 0.30 76 924.2
20260510032824 17 52 12.9 20.9 0.00 0.00 0.30 76 932.2
20260510032323 17 53 9.7 24.1 0.00 0.00 0.30 76 931.5
20260510031822 17 46 14.5 24.1 0.00 0.00 0.30 76 928.7
20260510030807 17 48 8.0 22.5 0.00 0.00 0.30 76 928.6
20260510025752 17 48 9.7 22.5 0.00 0.00 0.30 75 924.9
20260510025251 17 16 9.7 20.9 0.00 0.00 0.30 75 948.8
20260510024750 17 54 11.3 19.3 0.00 0.00 0.30 75 963.1
20260510024250 17 40 8.0 19.3 0.00 0.00 0.30 75 964.0
20260510023749 17 36 12.9 19.3 0.00 0.00 0.30 75 969.5
20260510023248 17 41 8.0 19.3 0.00 0.00 0.30 74 974.0
20260510022747 17 44 6.4 19.3 0.00 0.00 0.30 74 974.1
20260510022246 17 46 9.7 19.3 0.00 0.00 0.30 74 978.9
20260510021746 17 34 9.7 19.3 0.00 0.00 0.30 73 982.5
20260510021245 17 49 11.3 19.3 0.00 0.00 0.30 73 973.9
20260510020744 17 349 8.0 19.3 0.00 0.00 0.30 73 978.1
20260510015728 17 46 8.0 19.3 0.00 0.00 0.30 72 964.5
20260510015228 18 322 11.3 19.3 0.00 0.00 0.30 72 970.4
20260510014727 18 54 6.4 19.3 0.00 0.00 0.30 72 971.8
20260510014227 18 47 11.3 19.3 0.00 0.00 0.30 71 972.6
20260510013727 18 45 9.7 19.3 0.00 0.00 0.30 71 957.8
20260510013226 18 53 9.7 19.3 0.00 0.00 0.30 70 966.2
20260510012725 18 43 9.7 19.3 0.00 0.00 0.30 70 991.9
20260510012224 18 35 8.0 19.3 0.00 0.00 0.30 70 994.3
20260510011726 18 29 9.7 19.3 0.00 0.00 0.30 69 991.2
20260510011222 18 21 8.0 19.3 0.00 0.00 0.30 69 989.4
20260510010206 18 29 8.0 20.9 0.00 0.00 0.30 69 991.4
20260510005706 18 31 6.4 20.9 0.00 0.00 0.30 68 991.2
20260510005205 18 25 8.0 20.9 0.00 0.00 0.30 68 995.3
20260510004704 18 7 6.4 20.9 0.00 0.00 0.30 67 983.5
20260510004204 18 346 8.0 20.9 0.00 0.00 0.30 67 985.9
20260510003704 18 26 6.4 20.9 0.00 0.00 0.30 67 966.3
20260510003204 19 16 6.4 20.9 0.00 0.00 0.30 66 966.2
20260510002704 19 10 6.4 20.9 0.00 0.00 0.30 66 969.9
20260510002204 19 26 6.4 20.9 0.00 0.00 0.30 65 907.2
20260510001704 19 350 6.4 20.9 0.00 0.00 0.30 65 920.5
20260510001203 19 341 8.0 20.9 0.00 0.00 0.30 65 943.4
20260510000702 20 322 8.0 20.9 0.00 0.00 0.30 64 952.7
20260510000201 20 307 9.7 20.9 0.00 0.00 0.30 64 936.7
20260509235700 20 288 6.4 20.9 0.00 0.00 0.30 63 942.5
20260509234643 20 282 8.0 20.9 0.00 0.00 0.30 63 946.0
20260509233627 20 237 9.7 20.9 0.00 0.00 0.30 62 926.2
20260509233127 20 243 11.3 20.9 0.00 0.00 0.30 61 951.9
20260509232626 20 238 8.0 19.3 0.00 0.00 0.30 61 951.0
20260509231056 20 243 8.0 19.3 0.00 0.00 0.30 60 939.9
20260509230039 20 238 9.7 24.1 0.00 0.00 0.30 59 936.5
20260509225539 21 251 11.3 24.1 0.00 0.00 0.30 59 952.6
20260509225039 21 242 11.3 24.1 0.00 0.00 0.30 59 934.9
20260509224539 21 243 6.4 20.9 0.00 0.00 0.30 59 936.6
20260509224038 21 248 9.7 22.5 0.00 0.00 0.30 59 924.9
20260509223538 20 237 12.9 25.7 0.00 0.00 0.30 59 931.5
20260509223038 21 222 9.7 25.7 0.00 0.00 0.30 59 943.9
20260509222538 21 228 14.5 24.1 0.00 0.00 0.30 59 938.1
20260509221007 21 245 6.4 22.5 0.00 0.00 0.30 60 941.1
20260509215951 20 230 12.9 22.5 0.00 0.00 0.30 60 945.9
20260509214935 20 240 9.7 19.3 0.00 0.00 0.30 60 939.8
20260509214435 20 228 9.7 20.9 0.00 0.00 0.30 61 941.2
20260509213418 21 217 9.7 20.9 0.00 0.00 0.30 59 950.2
20260509212917 21 275 8.0 20.9 0.00 0.00 0.30 60 950.8
20260509212417 20 229 8.0 20.9 0.00 0.00 0.30 61 937.3
20260509211401 20 238 11.3 20.9 0.00 0.00 0.30 62 940.1
20260509210900 20 240 12.9 20.9 0.00 0.00 0.30 61 939.9
20260509210400 20 237 8.0 19.3 0.00 0.00 0.30 63 935.0
20260509205859 20 254 4.8 19.3 0.00 0.00 0.30 61 933.9
20260509204852 20 248 6.4 24.1 0.00 0.00 0.30 62 946.0
20260509204351 20 246 14.5 24.1 0.00 0.00 0.30 61 944.7
20260509203850 20 260 9.7 29.0 0.00 0.00 0.30 60 937.6
20260509202319 20 255 8.0 20.9 0.00 0.00 0.30 62 940.2
20260509201819 20 225 8.0 19.3 0.00 0.00 0.30 63 939.5
20260509201319 19 257 14.5 19.3 0.00 0.00 0.30 62 939.0
20260509200819 19 257 12.9 19.3 0.00 0.00 0.30 63 942.1
20260509200319 20 282 8.0 19.3 0.00 0.00 0.30 62 936.6
20260509195306 20 257 8.0 19.3 0.00 0.00 0.30 63 939.2
20260509194803 20 252 9.7 19.3 0.00 0.00 0.30 64 940.5
20260509194303 18 280 8.0 20.9 0.00 0.00 0.30 66 949.7
20260509193803 18 319 8.0 20.9 0.00 0.00 0.30 67 960.2
20260509193303 18 257 11.3 20.9 0.00 0.00 0.30 66 961.0
20260509192803 18 270 9.7 20.9 0.00 0.00 0.30 66 959.0
20260509192306 19 235 9.7 20.9 0.00 0.00 0.30 66 962.9
20260509191802 19 269 6.4 20.9 0.00 0.00 0.30 63 937.1
20260509191302 19 240 6.4 20.9 0.00 0.00 0.30 68 968.1
20260509190802 18 222 6.4 20.9 0.00 0.00 0.30 68 968.4
20260509190301 18 226 6.4 20.9 0.00 0.00 0.30 68 967.6
20260509185801 18 253 8.0 25.7 0.00 0.00 0.30 66 966.2
20260509184745 18 247 14.5 22.5 0.00 0.00 0.30 66 964.9
20260509184244 18 241 12.9 20.9 0.00 0.00 0.30 65 962.1
20260509183229 18 282 6.4 20.9 0.00 0.00 0.30 65 976.2
20260509182728 18 243 9.7 22.5 0.00 0.00 0.30 66 983.7
20260509182227 18 272 12.9 22.5 0.00 0.00 0.30 65 991.6
20260509181210 18 263 16.1 25.7 0.00 0.00 0.30 64 992.1
20260509180710 17 242 11.3 24.1 0.00 0.00 0.30 65 992.0